Change the Weather History Date:

Monday, September 23, 2013

  Actual Average Record
Temperature  
Mean Temperature 74 °F -  
Max Temperature 84 °F 83 °F 101 °F (2012)
Min Temperature 65 °F 59 °F 57 °F (2007)
Cooling Degree Days 10    
Growing Degree Days 24 (Base 50)    
Moisture  
Dew Point 67 °F    
Average Humidity 91    
Maximum Humidity 100    
Minimum Humidity 74    
Precipitation  
Precipitation 0.00 in 0.03 in - ()
Sea Level Pressure  
Sea Level Pressure 30.12 in    
Wind  
Wind Speed 4 mph ()    
Max Wind Speed 8 mph    
Max Gust Speed -    
Visibility 4.0 miles    
Events      
Averages and records for this station are not official NWS values.
T = Trace of Precipitation, MM = Missing Value Source: Averaged Metar Reports

Daily Weather History Graph

Daily Weather History Graph

Search for Another Location

Airport or City:

Trip Planner

Search our weather history database for the weather conditions in past years. The results will help you decide how hot, cold, wet, or windy it might be!

Date:

Astronomy

Sep. 23, 2013 Rise Set
Actual Time 7:21 AM WEST 7:27 PM WEST
Civil Twilight 6:56 AM WEST 7:51 PM WEST
Nautical Twilight 6:28 AM WEST 8:19 PM WEST
Astronomical Twilight 5:59 AM WEST 8:48 PM WEST
Moon 10:06 PM WEST (9/23) 11:10 AM WEST (9/23)
Length of Visible Light 12h 54m
Length of Day
12h 06m
Waning Gibbous, 83% of the Moon is Illuminated
Sep 23
Waning Gibbous
Sep 27
Last Quarter
Oct 5
New
Oct 12
First Quarter
Oct 19
Full

Hourly Weather History & Observations

Time (WEST) Temp. Dew Point Humidity Pressure Visibility Wind Dir Wind Speed Gust Speed Precip Events Conditions
12:00 AM 71.6 °F 66.2 °F 83% 30.15 in 4.3 mi SW 5.8 mph - N/A   Scattered Clouds
12:30 AM 71.6 °F 66.2 °F 83% 30.15 in 4.3 mi WSW 4.6 mph - N/A   Scattered Clouds
1:00 AM 69.8 °F 66.2 °F 88% 30.15 in 3.7 mi WSW 5.8 mph - N/A   Scattered Clouds
1:30 AM 69.8 °F 66.2 °F 88% 30.15 in 3.7 mi West 3.5 mph - N/A   Scattered Clouds
2:00 AM 69.8 °F 66.2 °F 88% 30.12 in 3.7 mi WSW 3.5 mph - N/A   Scattered Clouds
2:30 AM 68.0 °F 66.2 °F 94% 30.12 in 3.7 mi West 3.5 mph - N/A   Scattered Clouds
3:00 AM 68.0 °F 68.0 °F 100% 30.12 in 3.7 mi West 3.5 mph - N/A   Scattered Clouds
3:30 AM 68.0 °F 66.2 °F 94% 30.12 in 3.7 mi West 3.5 mph - N/A   Scattered Clouds
4:00 AM 68 °F 67 °F 95% 30.06 in 4 mi West 1.2 mph - -   Partly Cloudy
4:00 AM 68.0 °F 66.2 °F 94% 30.12 in 3.7 mi Variable 2.3 mph - N/A   Scattered Clouds
4:30 AM 68.0 °F 68.0 °F 100% 30.12 in 3.7 mi West 6.9 mph - N/A   Scattered Clouds
5:00 AM 68.0 °F 66.2 °F 94% 30.09 in 3.7 mi West 3.5 mph - N/A   Scattered Clouds
5:30 AM 68.0 °F 66.2 °F 94% 30.09 in 3.7 mi WSW 3.5 mph - N/A   Scattered Clouds
5:31 AM 68.0 °F 66.2 °F 94% 30.09 in 3.7 mi WSW 3.5 mph - N/A   Scattered Clouds
6:00 AM 66.2 °F 66.2 °F 100% 30.12 in 3.7 mi Calm Calm - N/A   Scattered Clouds
6:30 AM 66.2 °F 66.2 °F 100% 30.12 in 3.1 mi West 6.9 mph - N/A   Scattered Clouds
7:00 AM 65 °F 65 °F 100% 30.08 in 3 mi West 6.9 mph - -   Partly Cloudy
7:00 AM 66.2 °F 66.2 °F 100% 30.12 in 3.1 mi West 5.8 mph - N/A   Scattered Clouds
7:19 AM 66.2 °F 66.2 °F 100% 30.12 in 2.5 mi West 6.9 mph - N/A   Scattered Clouds
7:21 AM 66.2 °F 66.2 °F 100% 30.12 in 2.5 mi West 6.9 mph - N/A   Scattered Clouds
7:30 AM 66.2 °F 66.2 °F 100% 30.12 in 2.5 mi West 5.8 mph - N/A   Scattered Clouds
8:00 AM 66.2 °F 66.2 °F 100% 30.12 in 2.5 mi West 5.8 mph - N/A   Scattered Clouds
8:30 AM 66.2 °F 66.2 °F 100% 30.15 in 3.1 mi West 5.8 mph - N/A   Scattered Clouds
9:00 AM 66.2 °F 66.2 °F 100% 30.15 in 2.5 mi West 5.8 mph - N/A   Scattered Clouds
9:30 AM 68.0 °F 68.0 °F 100% 30.15 in 2.5 mi West 6.9 mph - N/A   Scattered Clouds
10:00 AM 67 °F 67 °F 100% 30.10 in 2 mi West 4.6 mph - -   Mist
10:00 AM 68.0 °F 68.0 °F 100% 30.15 in 2.5 mi West 4.6 mph - N/A   Scattered Clouds
10:30 AM 68.0 °F 68.0 °F 100% 30.15 in 2.5 mi West 3.5 mph - N/A   Scattered Clouds
11:00 AM 68.0 °F 68.0 °F 100% 30.15 in 2.5 mi West 4.6 mph - N/A   Scattered Clouds
11:30 AM 69.8 °F 68.0 °F 94% 30.15 in 2.5 mi West 4.6 mph - N/A   Scattered Clouds
11:48 AM 69.8 °F 66.2 °F 88% 30.15 in 3.7 mi West 4.6 mph - N/A   Scattered Clouds
12:00 PM 69.8 °F 66.2 °F 88% 30.15 in 3.7 mi West 4.6 mph - N/A   Scattered Clouds
12:30 PM 69.8 °F 68.0 °F 94% 30.15 in 3.7 mi West 6.9 mph - N/A   Scattered Clouds
1:00 PM 71 °F 67 °F 84% 30.09 in 4 mi WNW 6.9 mph - -   Overcast
1:00 PM 71.6 °F 68.0 °F 88% 30.15 in 4.3 mi West 5.8 mph - N/A   Scattered Clouds
1:30 PM 69.8 °F 68.0 °F 94% 30.12 in 4.3 mi WNW 6.9 mph - N/A   Mostly Cloudy
2:00 PM 71.6 °F 66.2 °F 83% 30.12 in 5.0 mi WNW 8.1 mph - N/A   Mostly Cloudy
2:30 PM 71.6 °F 68.0 °F 88% 30.12 in 5.0 mi WNW 8.1 mph - N/A   Mostly Cloudy
3:00 PM 71.6 °F 68.0 °F 88% 30.12 in 5.0 mi NW 4.6 mph - N/A   Mostly Cloudy
3:30 PM 71.6 °F 68.0 °F 88% 30.12 in 5.6 mi West 5.8 mph - N/A   Mostly Cloudy
4:00 PM 72 °F 67 °F 81% 30.05 in 6 mi WNW 4.6 mph - -   Overcast
4:00 PM 71.6 °F 68.0 °F 88% 30.09 in 5.6 mi WNW 4.6 mph - N/A   Mostly Cloudy
4:30 PM 71.6 °F 68.0 °F 88% 30.12 in 5.6 mi West 5.8 mph - N/A   Mostly Cloudy
5:00 PM 71.6 °F 66.2 °F 83% 30.12 in 4.3 mi West 6.9 mph - N/A   Mostly Cloudy
5:30 PM 71.6 °F 66.2 °F 83% 30.12 in 5.6 mi WSW 5.8 mph - N/A   Mostly Cloudy
6:00 PM 71.6 °F 66.2 °F 83% 30.12 in 5.6 mi West 6.9 mph - N/A   Mostly Cloudy
6:30 PM 73.4 °F 66.2 °F 78% 30.12 in 6.2 mi West 3.5 mph - N/A   Mostly Cloudy
7:00 PM 73 °F 66 °F 74% 30.05 in 6 mi WSW 5.8 mph - -   Mostly Cloudy
7:00 PM 73.4 °F 66.2 °F 78% 30.12 in 6.2 mi WSW 4.6 mph - N/A   Mostly Cloudy
7:30 PM 71.6 °F 66.2 °F 83% 30.12 in 5.6 mi SW 8.1 mph - N/A   Mostly Cloudy
8:00 PM 71.6 °F 66.2 °F 83% 30.09 in 5.0 mi SSW 5.8 mph - N/A   Mostly Cloudy
8:30 PM 71.6 °F 66.2 °F 83% 30.09 in 5.6 mi SSW 3.5 mph - N/A   Scattered Clouds
9:00 PM 71.6 °F 66.2 °F 83% 30.09 in 5.0 mi Calm Calm - N/A   Scattered Clouds
9:30 PM 69.8 °F 66.2 °F 88% 30.09 in 4.3 mi North 2.3 mph - N/A   Partly Cloudy
10:00 PM 71 °F 66 °F 80% 30.05 in 4 mi North 3.5 mph - -   Scattered Clouds
10:00 PM 69.8 °F 66.2 °F 88% 30.09 in 3.7 mi North 3.5 mph - N/A   Partly Cloudy
10:30 PM 69.8 °F 66.2 °F 88% 30.09 in 3.7 mi NE 3.5 mph - N/A   Partly Cloudy
11:00 PM 69.8 °F 66.2 °F 88% 30.09 in 3.7 mi Calm Calm - N/A   Partly Cloudy
11:30 PM 69.8 °F 66.2 °F 88% 30.09 in 3.7 mi North 3.5 mph - N/A   Partly Cloudy